| time (UTC) | temp F | wind direction | speed MPH | gust MPH | rain 1hr in | rain 24hr in | rain mn in | humidity % | barometer mb |
| 20260508200040 | 69 | 116 | 0.0 | 0.0 | 0.00 | 0.00 | 0.00 | 47 | 1019.2 |
| 20260508195533 | 70 | 182 | 0.0 | 0.0 | 0.00 | 0.00 | 0.00 | 50 | 1019.3 |
| 20260508195032 | 69 | 345 | 0.0 | 0.0 | 0.00 | 0.00 | 0.00 | 49 | 1019.2 |
| 20260508194532 | 69 | 54 | 0.0 | 0.0 | 0.00 | 0.00 | 0.00 | 49 | 1019.3 |
| 20260508194033 | 69 | 102 | 0.0 | 0.0 | 0.00 | 0.00 | 0.00 | 50 | 1019.5 |
| 20260508193530 | 69 | 191 | 0.0 | 0.0 | 0.00 | 0.00 | 0.00 | 48 | 1019.7 |
| 20260508193057 | 69 | 131 | 0.0 | 0.0 | 0.00 | 0.00 | 0.00 | 49 | 1019.8 |
| 20260508192529 | 69 | 79 | 0.0 | 0.0 | 0.00 | 0.00 | 0.00 | 46 | 1019.8 |
| 20260508192032 | 70 | 32 | 0.0 | 0.0 | 0.00 | 0.00 | 0.00 | 48 | 1019.8 |
| 20260508191628 | 69 | 351 | 0.0 | 0.0 | 0.00 | 0.00 | 0.00 | 50 | 1020.0 |
| 20260508191030 | 69 | 134 | 0.0 | 0.0 | 0.00 | 0.00 | 0.00 | 50 | 1020.0 |
| 20260508190531 | 69 | 60 | 0.0 | 0.0 | 0.00 | 0.00 | 0.00 | 47 | 1020.2 |
| 20260508190036 | 69 | 51 | 0.0 | 0.0 | 0.00 | 0.00 | 0.00 | 47 | 1020.5 |
| 20260508185529 | 69 | 4 | 0.0 | 0.0 | 0.00 | 0.00 | 0.00 | 48 | 1020.3 |
| 20260508185029 | 69 | 57 | 0.0 | 0.0 | 0.00 | 0.00 | 0.00 | 47 | 1020.3 |
| 20260508184528 | 70 | 195 | 0.0 | 0.0 | 0.00 | 0.00 | 0.00 | 45 | 1020.3 |
| 20260508184027 | 70 | 58 | 0.0 | 0.0 | 0.00 | 0.00 | 0.00 | 44 | 1020.5 |
| 20260508183525 | 69 | 92 | 0.0 | 0.0 | 0.00 | 0.00 | 0.00 | 45 | 1020.6 |
| 20260508183026 | 69 | 34 | 0.0 | 0.0 | 0.00 | 0.00 | 0.00 | 46 | 1020.7 |
| 20260508182526 | 69 | 117 | 0.0 | 0.0 | 0.00 | 0.00 | 0.00 | 43 | 1020.6 |
| 20260508182025 | 69 | 82 | 0.0 | 0.0 | 0.00 | 0.00 | 0.00 | 46 | 1020.6 |
| 20260508181625 | 68 | 58 | 0.0 | 0.0 | 0.00 | 0.00 | 0.00 | 46 | 1020.7 |
| 20260508181027 | 68 | 127 | 0.0 | 0.0 | 0.00 | 0.00 | 0.00 | 45 | 1020.7 |
| 20260508180522 | 68 | 62 | 0.0 | 0.0 | 0.00 | 0.00 | 0.00 | 49 | 1020.9 |
| 20260508180027 | 68 | 110 | 0.0 | 0.0 | 0.00 | 0.00 | 0.00 | 47 | 1021.0 |
| 20260508175521 | 69 | 84 | 0.0 | 0.0 | 0.00 | 0.00 | 0.00 | 44 | 1021.1 |
| 20260508175023 | 69 | 140 | 0.0 | 0.0 | 0.00 | 0.00 | 0.00 | 45 | 1021.2 |
| 20260508174530 | 69 | 93 | 0.0 | 0.0 | 0.00 | 0.00 | 0.00 | 44 | 1021.0 |
| 20260508174021 | 68 | 250 | 0.0 | 0.0 | 0.00 | 0.00 | 0.00 | 44 | 1021.0 |
| 20260508173519 | 69 | 160 | 0.0 | 0.0 | 0.00 | 0.00 | 0.00 | 45 | 1021.1 |
| 20260508173129 | 68 | 31 | 0.0 | 0.0 | 0.00 | 0.00 | 0.00 | 44 | 1021.0 |
| 20260508172516 | 68 | 99 | 0.0 | 0.0 | 0.00 | 0.00 | 0.00 | 45 | 1021.3 |
| 20260508172016 | 67 | 94 | 0.0 | 0.0 | 0.00 | 0.00 | 0.00 | 47 | 1021.5 |
| 20260508171629 | 67 | 72 | 0.0 | 0.0 | 0.00 | 0.00 | 0.00 | 46 | 1021.5 |
| 20260508171019 | 67 | 96 | 0.0 | 0.0 | 0.00 | 0.00 | 0.00 | 46 | 1021.5 |
| 20260508170516 | 68 | 320 | 0.0 | 0.0 | 0.00 | 0.00 | 0.00 | 46 | 1021.6 |
| 20260508170016 | 68 | 107 | 0.0 | 0.0 | 0.00 | 0.00 | 0.00 | 46 | 1021.9 |
| 20260508165513 | 67 | 221 | 0.0 | 0.0 | 0.00 | 0.00 | 0.00 | 48 | 1021.9 |
| 20260508165013 | 66 | 207 | 0.0 | 0.0 | 0.00 | 0.00 | 0.00 | 47 | 1022.0 |
| 20260508164512 | 66 | 127 | 0.0 | 0.0 | 0.00 | 0.00 | 0.00 | 49 | 1022.1 |
| 20260508164012 | 67 | 63 | 0.0 | 0.0 | 0.00 | 0.00 | 0.00 | 49 | 1022.3 |
| 20260508163512 | 67 | 65 | 0.0 | 0.0 | 0.00 | 0.00 | 0.00 | 46 | 1022.2 |
| 20260508163011 | 67 | 46 | 0.0 | 0.0 | 0.00 | 0.00 | 0.00 | 48 | 1022.2 |
| 20260508162510 | 67 | 61 | 0.0 | 0.0 | 0.00 | 0.00 | 0.00 | 50 | 1022.2 |
| 20260508162008 | 66 | 62 | 0.0 | 0.0 | 0.00 | 0.00 | 0.00 | 50 | 1022.6 |
| 20260508161608 | 66 | 129 | 0.0 | 0.0 | 0.00 | 0.00 | 0.00 | 52 | 1022.4 |
| 20260508161009 | 65 | 141 | 0.0 | 0.0 | 0.00 | 0.00 | 0.00 | 51 | 1022.5 |
| 20260508160510 | 66 | 98 | 0.0 | 0.0 | 0.00 | 0.00 | 0.00 | 50 | 1022.6 |
| 20260508160007 | 65 | 86 | 0.0 | 0.0 | 0.00 | 0.00 | 0.00 | 53 | 1022.7 |
| 20260508155508 | 65 | 68 | 0.0 | 0.0 | 0.00 | 0.00 | 0.00 | 51 | 1022.8 |
| 20260508155006 | 64 | 155 | 0.0 | 0.0 | 0.00 | 0.00 | 0.00 | 52 | 1022.8 |
| 20260508154506 | 65 | 237 | 0.0 | 0.0 | 0.00 | 0.00 | 0.00 | 51 | 1023.0 |
| 20260508154006 | 64 | 126 | 0.0 | 0.0 | 0.00 | 0.00 | 0.00 | 52 | 1023.0 |
| 20260508153506 | 64 | 112 | 0.0 | 0.0 | 0.00 | 0.00 | 0.00 | 54 | 1023.0 |
| 20260508153005 | 64 | 222 | 0.0 | 0.0 | 0.00 | 0.00 | 0.00 | 53 | 1023.0 |
| 20260508152505 | 64 | 122 | 0.0 | 0.0 | 0.00 | 0.00 | 0.00 | 53 | 1023.1 |
| 20260508152006 | 65 | 179 | 0.0 | 0.0 | 0.00 | 0.00 | 0.00 | 53 | 1023.1 |
| 20260508151603 | 63 | 105 | 0.0 | 0.0 | 0.00 | 0.00 | 0.00 | 55 | 1023.1 |
| 20260508151004 | 63 | 72 | 0.0 | 0.0 | 0.00 | 0.00 | 0.00 | 55 | 1023.1 |
| 20260508150502 | 63 | 127 | 0.0 | 0.0 | 0.00 | 0.00 | 0.00 | 57 | 1023.1 |
| 20260508150003 | 63 | 184 | 0.0 | 0.0 | 0.00 | 0.00 | 0.00 | 56 | 1023.1 |
| 20260508145600 | 63 | 156 | 0.0 | 0.0 | 0.00 | 0.00 | 0.00 | 57 | 1023.3 |
| 20260508145059 | 62 | 143 | 0.0 | 0.0 | 0.00 | 0.00 | 0.00 | 56 | 1023.4 |
| 20260508144600 | 63 | 163 | 0.0 | 0.0 | 0.00 | 0.00 | 0.00 | 56 | 1023.4 |
| 20260508144102 | 63 | 110 | 0.0 | 0.0 | 0.00 | 0.00 | 0.00 | 55 | 1023.4 |
| 20260508143600 | 64 | 159 | 0.0 | 0.0 | 0.00 | 0.00 | 0.00 | 54 | 1023.3 |
| 20260508143102 | 64 | 68 | 0.0 | 0.0 | 0.00 | 0.00 | 0.00 | 54 | 1023.4 |
| 20260508142556 | 63 | 16 | 0.0 | 0.0 | 0.00 | 0.00 | 0.00 | 57 | 1023.3 |
| 20260508142055 | 62 | 94 | 0.0 | 0.0 | 0.00 | 0.00 | 0.00 | 59 | 1023.4 |
| 20260508141555 | 61 | 58 | 0.0 | 0.0 | 0.00 | 0.00 | 0.00 | 61 | 1023.4 |
| 20260508141054 | 61 | 66 | 0.0 | 0.0 | 0.00 | 0.00 | 0.00 | 60 | 1023.4 |
| 20260508140555 | 61 | 360 | 0.0 | 0.0 | 0.00 | 0.00 | 0.00 | 60 | 1023.5 |
| 20260508140108 | 61 | 107 | 0.0 | 0.0 | 0.00 | 0.00 | 0.00 | 60 | 1023.4 |
| 20260508135554 | 61 | 79 | 0.0 | 0.0 | 0.00 | 0.00 | 0.00 | 58 | 1023.4 |
| 20260508135053 | 61 | 69 | 0.0 | 0.0 | 0.00 | 0.00 | 0.00 | 62 | 1023.5 |
| 20260508134609 | 61 | 47 | 0.0 | 0.0 | 0.00 | 0.00 | 0.00 | 65 | 1023.5 |
| 20260508134051 | 60 | 95 | 0.0 | 0.0 | 0.00 | 0.00 | 0.00 | 68 | 1023.5 |
| 20260508133549 | 59 | 304 | 0.0 | 0.0 | 0.00 | 0.00 | 0.00 | 71 | 1023.5 |
| 20260508133104 | 60 | 80 | 0.0 | 0.0 | 0.00 | 0.00 | 0.00 | 71 | 1023.5 |
| 20260508132549 | 59 | 85 | 0.0 | 0.0 | 0.00 | 0.00 | 0.00 | 74 | 1023.5 |
| 20260508132049 | 58 | 136 | 0.0 | 0.0 | 0.00 | 0.00 | 0.00 | 74 | 1023.5 |
| 20260508131549 | 56 | 13 | 0.0 | 0.0 | 0.00 | 0.00 | 0.00 | 83 | 1023.5 |
| 20260508131051 | 55 | 13 | 0.0 | 0.0 | 0.00 | 0.00 | 0.00 | 83 | 1023.5 |
| 20260508130550 | 55 | 13 | 0.0 | 0.0 | 0.00 | 0.00 | 0.00 | 84 | 1023.4 |
| 20260508130046 | 54 | 13 | 0.0 | 0.0 | 0.00 | 0.00 | 0.00 | 85 | 1023.4 |
| 20260508125546 | 54 | 13 | 0.0 | 0.0 | 0.00 | 0.00 | 0.00 | 87 | 1023.3 |
| 20260508125045 | 54 | 13 | 0.0 | 0.0 | 0.00 | 0.00 | 0.00 | 91 | 1023.3 |
| 20260508124545 | 52 | 13 | 0.0 | 0.0 | 0.00 | 0.00 | 0.00 | 93 | 1023.3 |
| 20260508124045 | 51 | 13 | 0.0 | 0.0 | 0.00 | 0.00 | 0.00 | 93 | 1023.2 |
| 20260508123544 | 50 | 13 | 0.0 | 0.0 | 0.00 | 0.00 | 0.00 | 93 | 1023.3 |
| 20260508123044 | 49 | 13 | 0.0 | 0.0 | 0.00 | 0.05 | 0.00 | 94 | 1023.2 |
| 20260508122543 | 49 | 13 | 0.0 | 0.0 | 0.00 | 0.05 | 0.00 | 95 | 1023.1 |
| 20260508122044 | 49 | 13 | 0.0 | 0.0 | 0.00 | 0.05 | 0.00 | 96 | 1023.1 |
| 20260508121544 | 48 | 13 | 0.0 | 0.0 | 0.00 | 0.05 | 0.00 | 96 | 1023.0 |
| 20260508121044 | 48 | 13 | 0.0 | 0.0 | 0.00 | 0.05 | 0.00 | 96 | 1023.0 |
| 20260508120543 | 47 | 13 | 0.0 | 0.0 | 0.00 | 0.05 | 0.00 | 96 | 1023.0 |
| 20260508120048 | 46 | 13 | 0.0 | 0.0 | 0.00 | 0.05 | 0.00 | 96 | 1023.0 |
| 20260508115542 | 45 | 13 | 0.0 | 0.0 | 0.00 | 0.05 | 0.00 | 96 | 1022.8 |
| 20260508115041 | 45 | 13 | 0.0 | 0.0 | 0.00 | 0.05 | 0.00 | 96 | 1022.9 |
| 20260508114541 | 44 | 13 | 0.0 | 0.0 | 0.00 | 0.05 | 0.00 | 96 | 1022.7 |
| 20260508114040 | 44 | 13 | 0.0 | 0.0 | 0.00 | 0.05 | 0.00 | 96 | 1022.5 |
| 20260508113540 | 43 | 13 | 0.0 | 0.0 | 0.00 | 0.05 | 0.00 | 96 | 1022.5 |
| 20260508113049 | 42 | 13 | 0.0 | 0.0 | 0.00 | 0.12 | 0.00 | 96 | 1022.3 |
| 20260508112539 | 41 | 13 | 0.0 | 0.0 | 0.00 | 0.12 | 0.00 | 96 | 1022.4 |
| 20260508112037 | 40 | 13 | 0.0 | 0.0 | 0.00 | 0.12 | 0.00 | 96 | 1022.1 |
| 20260508111537 | 40 | 13 | 0.0 | 0.0 | 0.00 | 0.12 | 0.00 | 96 | 1022.0 |
| 20260508111037 | 40 | 13 | 0.0 | 0.0 | 0.00 | 0.12 | 0.00 | 96 | 1022.0 |
| 20260508110536 | 40 | 4 | 0.0 | 0.0 | 0.00 | 0.12 | 0.00 | 96 | 1021.9 |
| 20260508110037 | 40 | 4 | 0.0 | 0.0 | 0.00 | 0.12 | 0.00 | 96 | 1021.8 |
| 20260508105536 | 40 | 4 | 0.0 | 0.0 | 0.00 | 0.12 | 0.00 | 96 | 1021.7 |
| 20260508105036 | 40 | 4 | 0.0 | 0.0 | 0.00 | 0.12 | 0.00 | 96 | 1021.7 |
| 20260508104534 | 40 | 4 | 0.0 | 0.0 | 0.00 | 0.12 | 0.00 | 96 | 1021.6 |
| 20260508104034 | 40 | 4 | 0.0 | 0.0 | 0.00 | 0.12 | 0.00 | 96 | 1021.4 |
| 20260508103533 | 40 | 4 | 0.0 | 0.0 | 0.00 | 0.12 | 0.00 | 96 | 1021.4 |
| 20260508103035 | 40 | 4 | 0.0 | 0.0 | 0.00 | 0.12 | 0.00 | 96 | 1021.2 |
| 20260508102533 | 40 | 4 | 0.0 | 0.0 | 0.00 | 0.12 | 0.00 | 96 | 1021.1 |
| 20260508102030 | 40 | 4 | 0.0 | 0.0 | 0.00 | 0.12 | 0.00 | 96 | 1021.1 |
| 20260508101535 | 40 | 316 | 0.0 | 0.0 | 0.00 | 0.12 | 0.00 | 96 | 1020.9 |
| 20260508101031 | 40 | 316 | 0.0 | 0.0 | 0.00 | 0.12 | 0.00 | 96 | 1020.8 |
| 20260508100530 | 41 | 316 | 0.0 | 0.0 | 0.00 | 0.12 | 0.00 | 96 | 1020.7 |
| 20260508100030 | 41 | 316 | 0.0 | 0.0 | 0.00 | 0.12 | 0.00 | 96 | 1020.7 |
| 20260508095534 | 41 | 316 | 0.0 | 0.0 | 0.00 | 0.12 | 0.00 | 96 | 1020.7 |
| 20260508095030 | 41 | 316 | 0.0 | 0.0 | 0.00 | 0.12 | 0.00 | 96 | 1020.6 |
| 20260508094529 | 41 | 319 | 0.0 | 0.0 | 0.00 | 0.12 | 0.00 | 96 | 1020.6 |
| 20260508094032 | 41 | 27 | 0.0 | 0.0 | 0.00 | 0.12 | 0.00 | 96 | 1020.7 |
| 20260508093528 | 41 | 27 | 0.0 | 0.0 | 0.00 | 0.12 | 0.00 | 96 | 1020.5 |
| 20260508093031 | 41 | 11 | 0.0 | 0.0 | 0.00 | 0.12 | 0.00 | 96 | 1020.5 |
| 20260508092527 | 41 | 11 | 0.0 | 0.0 | 0.00 | 0.12 | 0.00 | 96 | 1020.6 |
| 20260508092027 | 41 | 8 | 0.0 | 0.0 | 0.00 | 0.12 | 0.00 | 96 | 1020.5 |
| 20260508091540 | 42 | 7 | 0.0 | 0.0 | 0.00 | 0.12 | 0.00 | 96 | 1020.5 |
| 20260508091023 | 42 | 11 | 0.0 | 0.0 | 0.00 | 0.12 | 0.00 | 96 | 1020.5 |
| 20260508090524 | 42 | 11 | 0.0 | 0.0 | 0.00 | 0.12 | 0.00 | 96 | 1020.5 |
| 20260508090023 | 42 | 11 | 0.0 | 0.0 | 0.00 | 0.12 | 0.00 | 96 | 1020.5 |
| 20260508085524 | 42 | 11 | 0.0 | 0.0 | 0.00 | 0.12 | 0.00 | 96 | 1020.4 |
| 20260508085021 | 42 | 4 | 0.0 | 0.0 | 0.00 | 0.12 | 0.00 | 96 | 1020.3 |
| 20260508084521 | 42 | 4 | 0.0 | 0.0 | 0.00 | 0.12 | 0.00 | 96 | 1020.3 |
| 20260508084026 | 42 | 4 | 0.0 | 0.0 | 0.00 | 0.12 | 0.00 | 96 | 1020.3 |
| 20260508083521 | 42 | 4 | 0.0 | 0.0 | 0.00 | 0.14 | 0.00 | 96 | 1020.3 |
| 20260508083030 | 42 | 352 | 0.0 | 0.0 | 0.00 | 0.14 | 0.00 | 96 | 1020.2 |
| 20260508082520 | 42 | 352 | 0.0 | 0.0 | 0.00 | 0.14 | 0.00 | 96 | 1020.3 |
| 20260508082019 | 42 | 352 | 0.0 | 0.0 | 0.00 | 0.14 | 0.00 | 96 | 1020.2 |
| 20260508081520 | 42 | 352 | 0.0 | 0.0 | 0.00 | 0.14 | 0.00 | 96 | 1020.1 |
| 20260508081019 | 42 | 352 | 0.0 | 0.0 | 0.00 | 0.14 | 0.00 | 95 | 1020.1 |
| 20260508080519 | 42 | 352 | 0.0 | 0.0 | 0.00 | 0.14 | 0.00 | 95 | 1020.1 |
| 20260508080019 | 42 | 352 | 0.0 | 0.0 | 0.00 | 0.14 | 0.00 | 95 | 1020.0 |
| 20260508075518 | 42 | 352 | 0.0 | 0.0 | 0.00 | 0.14 | 0.00 | 95 | 1019.9 |
| 20260508075023 | 42 | 352 | 0.0 | 0.0 | 0.00 | 0.14 | 0.00 | 95 | 1019.9 |
| 20260508074519 | 42 | 352 | 0.0 | 0.0 | 0.00 | 0.14 | 0.00 | 95 | 1019.8 |
| 20260508074015 | 43 | 352 | 0.0 | 0.0 | 0.00 | 0.14 | 0.00 | 95 | 1019.8 |
| 20260508073516 | 43 | 352 | 0.0 | 0.0 | 0.00 | 0.14 | 0.00 | 95 | 1019.6 |
| 20260508073014 | 43 | 51 | 0.0 | 0.0 | 0.00 | 0.14 | 0.00 | 95 | 1019.6 |
| 20260508072517 | 43 | 250 | 0.0 | 0.0 | 0.00 | 0.14 | 0.00 | 95 | 1019.5 |
| 20260508072013 | 43 | 250 | 0.0 | 0.0 | 0.00 | 0.14 | 0.00 | 95 | 1019.5 |
| 20260508071514 | 43 | 250 | 0.0 | 0.0 | 0.00 | 0.14 | 0.00 | 95 | 1019.5 |
| 20260508071016 | 43 | 250 | 0.0 | 0.0 | 0.00 | 0.14 | 0.00 | 95 | 1019.6 |
| 20260508070514 | 43 | 250 | 0.0 | 0.0 | 0.00 | 0.14 | 0.00 | 95 | 1019.3 |
| 20260508070014 | 43 | 250 | 0.0 | 0.0 | 0.00 | 0.14 | 0.00 | 95 | 1019.5 |
| 20260508065513 | 44 | 250 | 0.0 | 0.0 | 0.00 | 0.14 | 0.00 | 95 | 1019.4 |
| 20260508065009 | 44 | 250 | 0.0 | 0.0 | 0.00 | 0.14 | 0.00 | 95 | 1019.2 |
| 20260508064516 | 44 | 250 | 0.0 | 0.0 | 0.00 | 0.14 | 0.00 | 95 | 1019.4 |
| 20260508064010 | 44 | 250 | 0.0 | 0.0 | 0.00 | 0.14 | 0.00 | 95 | 1019.4 |
| 20260508063512 | 44 | 250 | 0.0 | 0.0 | 0.00 | 0.14 | 0.00 | 95 | 1019.2 |
| 20260508063008 | 44 | 250 | 0.0 | 0.0 | 0.00 | 0.14 | 0.00 | 95 | 1019.2 |
| 20260508062511 | 44 | 250 | 0.0 | 0.0 | 0.00 | 0.14 | 0.00 | 95 | 1019.2 |
| 20260508062007 | 44 | 250 | 0.0 | 0.0 | 0.00 | 0.14 | 0.00 | 95 | 1019.1 |
| 20260508061507 | 45 | 250 | 0.0 | 0.0 | 0.00 | 0.14 | 0.00 | 95 | 1019.0 |
| 20260508061006 | 45 | 250 | 0.0 | 0.0 | 0.00 | 0.14 | 0.00 | 95 | 1019.0 |
| 20260508060506 | 45 | 250 | 0.0 | 0.0 | 0.00 | 0.14 | 0.00 | 95 | 1019.1 |
| 20260508060005 | 45 | 250 | 0.0 | 0.0 | 0.00 | 0.14 | 0.00 | 95 | 1019.2 |
| 20260508055505 | 45 | 250 | 0.0 | 0.0 | 0.00 | 0.14 | 0.00 | 95 | 1019.1 |
| 20260508055005 | 45 | 250 | 0.0 | 0.0 | 0.00 | 0.14 | 0.00 | 95 | 1019.1 |
| 20260508054505 | 45 | 250 | 0.0 | 0.0 | 0.00 | 0.14 | 0.00 | 95 | 1019.2 |
| 20260508054004 | 45 | 250 | 0.0 | 0.0 | 0.00 | 0.14 | 0.00 | 95 | 1019.1 |
| 20260508053505 | 45 | 250 | 0.0 | 0.0 | 0.00 | 0.21 | 0.00 | 94 | 1019.1 |
| 20260508053004 | 45 | 250 | 0.0 | 0.0 | 0.00 | 0.21 | 0.00 | 94 | 1019.2 |
| 20260508052502 | 46 | 250 | 0.0 | 0.0 | 0.00 | 0.21 | 0.00 | 94 | 1019.0 |
| 20260508052004 | 46 | 250 | 0.0 | 0.0 | 0.00 | 0.21 | 0.00 | 94 | 1018.9 |
| 20260508051501 | 46 | 250 | 0.0 | 0.0 | 0.00 | 0.21 | 0.00 | 94 | 1019.0 |
| 20260508051001 | 46 | 250 | 0.0 | 0.0 | 0.00 | 0.21 | 0.00 | 94 | 1018.9 |
| 20260508050501 | 46 | 250 | 0.0 | 0.0 | 0.00 | 0.21 | 0.00 | 94 | 1019.0 |
| 20260508050001 | 46 | 250 | 0.0 | 0.0 | 0.00 | 0.21 | 0.00 | 94 | 1018.9 |
| 20260508045559 | 46 | 250 | 0.0 | 0.0 | 0.00 | 0.21 | 0.00 | 94 | 1018.8 |
| 20260508045059 | 46 | 250 | 0.0 | 0.0 | 0.00 | 0.21 | 0.00 | 94 | 1018.8 |
| 20260508044559 | 46 | 250 | 0.0 | 0.0 | 0.00 | 0.21 | 0.00 | 94 | 1018.7 |
| 20260508044059 | 46 | 250 | 0.0 | 0.0 | 0.00 | 0.21 | 0.00 | 94 | 1018.7 |
| 20260508043557 | 47 | 250 | 0.0 | 0.0 | 0.00 | 0.21 | 0.00 | 94 | 1018.6 |
| 20260508043056 | 47 | 250 | 0.0 | 0.0 | 0.00 | 0.25 | 0.00 | 94 | 1018.7 |
| 20260508042556 | 47 | 250 | 0.0 | 0.0 | 0.00 | 0.25 | 0.00 | 93 | 1018.6 |
| 20260508042055 | 47 | 250 | 0.0 | 0.0 | 0.00 | 0.25 | 0.00 | 93 | 1018.5 |
| 20260508041555 | 47 | 248 | 0.0 | 0.0 | 0.00 | 0.25 | 0.00 | 93 | 1018.6 |
| 20260508040556 | 48 | 236 | 0.0 | 0.0 | 0.00 | 0.25 | 0.00 | 93 | 1018.6 |
| 20260508040056 | 48 | 236 | 0.0 | 0.0 | 0.00 | 0.25 | 0.00 | 93 | 1018.5 |
| 20260508035555 | 48 | 236 | 0.0 | 0.0 | 0.00 | 0.25 | 0.00 | 93 | 1018.6 |
| 20260508035055 | 48 | 242 | 0.0 | 0.0 | 0.00 | 0.25 | 0.00 | 93 | 1018.6 |
| 20260508034554 | 48 | 153 | 0.0 | 0.0 | 0.00 | 0.25 | 0.00 | 92 | 1018.6 |
| 20260508034053 | 48 | 153 | 0.0 | 0.0 | 0.00 | 0.25 | 0.00 | 92 | 1018.6 |
| 20260508033552 | 49 | 46 | 0.0 | 0.0 | 0.00 | 0.25 | 0.00 | 92 | 1018.5 |
| 20260508033054 | 49 | 183 | 0.0 | 0.0 | 0.00 | 0.25 | 0.00 | 92 | 1018.6 |
| 20260508032553 | 49 | 224 | 0.0 | 0.0 | 0.00 | 0.25 | 0.00 | 92 | 1018.5 |
| 20260508032054 | 49 | 322 | 0.0 | 0.0 | 0.00 | 0.25 | 0.00 | 93 | 1018.5 |
| 20260508031551 | 49 | 227 | 0.0 | 0.0 | 0.00 | 0.25 | 0.00 | 92 | 1018.5 |
| 20260508030549 | 49 | 353 | 0.0 | 0.0 | 0.00 | 0.25 | 0.00 | 92 | 1018.5 |
| 20260508030049 | 49 | 353 | 0.0 | 0.0 | 0.00 | 0.25 | 0.00 | 92 | 1018.6 |
| 20260508025547 | 49 | 30 | 0.0 | 0.0 | 0.00 | 0.25 | 0.00 | 92 | 1018.4 |
| 20260508025046 | 49 | 171 | 0.0 | 0.0 | 0.00 | 0.25 | 0.00 | 91 | 1018.4 |
| 20260508024546 | 50 | 336 | 0.0 | 0.0 | 0.00 | 0.25 | 0.00 | 91 | 1018.2 |
| 20260508024045 | 50 | 221 | 0.0 | 0.0 | 0.00 | 0.25 | 0.00 | 90 | 1018.3 |
| 20260508023545 | 50 | 221 | 0.0 | 0.0 | 0.00 | 0.25 | 0.00 | 90 | 1018.1 |
| 20260508023043 | 50 | 203 | 0.0 | 0.0 | 0.00 | 0.28 | 0.00 | 90 | 1018.0 |
| 20260508022542 | 51 | 203 | 0.0 | 0.0 | 0.00 | 0.28 | 0.00 | 90 | 1017.9 |
| 20260508022042 | 51 | 203 | 0.0 | 0.0 | 0.00 | 0.28 | 0.00 | 90 | 1017.7 |
| 20260508021548 | 51 | 203 | 0.0 | 0.0 | 0.00 | 0.28 | 0.00 | 89 | 1017.8 |
| 20260508020540 | 52 | 203 | 0.0 | 0.0 | 0.00 | 0.28 | 0.00 | 88 | 1017.8 |
| 20260508020039 | 52 | 202 | 0.0 | 0.0 | 0.00 | 0.28 | 0.00 | 87 | 1017.7 |
| 20260508015538 | 52 | 203 | 0.0 | 0.0 | 0.00 | 0.28 | 0.00 | 87 | 1017.5 |
| 20260508015037 | 52 | 202 | 0.0 | 0.0 | 0.00 | 0.28 | 0.00 | 87 | 1017.4 |
| 20260508014537 | 53 | 203 | 0.0 | 0.0 | 0.00 | 0.28 | 0.00 | 87 | 1017.2 |
| 20260508014038 | 53 | 210 | 0.0 | 0.0 | 0.00 | 0.28 | 0.00 | 86 | 1017.1 |
| 20260508013535 | 53 | 201 | 0.0 | 0.0 | 0.00 | 0.33 | 0.00 | 85 | 1017.1 |
| 20260508013032 | 54 | 201 | 0.0 | 0.0 | 0.00 | 0.33 | 0.00 | 84 | 1017.0 |
| 20260508012530 | 55 | 303 | 0.0 | 0.0 | 0.00 | 0.33 | 0.00 | 82 | 1016.9 |
| 20260508012029 | 55 | 303 | 0.0 | 0.0 | 0.00 | 0.33 | 0.00 | 80 | 1017.0 |
| 20260508011534 | 55 | 288 | 0.0 | 0.0 | 0.00 | 0.33 | 0.00 | 79 | 1016.7 |
| 20260508010531 | 56 | 172 | 0.0 | 0.0 | 0.00 | 0.33 | 0.00 | 80 | 1016.6 |
| 20260508010037 | 56 | 172 | 0.0 | 0.0 | 0.00 | 0.33 | 0.00 | 78 | 1016.6 |
| 20260508005530 | 57 | 172 | 0.0 | 0.0 | 0.00 | 0.33 | 0.00 | 78 | 1016.5 |
| 20260508005025 | 57 | 172 | 0.0 | 0.0 | 0.00 | 0.33 | 0.00 | 76 | 1016.6 |
| 20260508004523 | 58 | 195 | 0.0 | 0.0 | 0.00 | 0.33 | 0.00 | 73 | 1016.4 |
| 20260508004023 | 58 | 295 | 0.0 | 0.0 | 0.00 | 0.33 | 0.00 | 72 | 1016.3 |
| 20260508003522 | 58 | 2 | 0.0 | 0.0 | 0.00 | 0.45 | 0.00 | 74 | 1016.4 |
| 20260508003021 | 59 | 51 | 0.0 | 0.0 | 0.00 | 0.45 | 0.00 | 74 | 1016.3 |
| 20260508002519 | 59 | 345 | 0.0 | 0.0 | 0.00 | 0.45 | 0.00 | 72 | 1016.0 |
| 20260508002021 | 60 | 336 | 0.0 | 0.0 | 0.00 | 0.45 | 0.00 | 70 | 1016.0 |
| 20260508001516 | 61 | 358 | 0.0 | 0.0 | 0.00 | 0.45 | 0.00 | 67 | 1015.8 |
| 20260508000515 | 62 | 323 | 0.0 | 0.0 | 0.00 | 0.45 | 0.00 | 65 | 1015.5 |
| 20260508000012 | 62 | 270 | 0.0 | 0.0 | 0.00 | 0.45 | 0.00 | 64 | 1015.6 |
| 20260507235516 | 63 | 297 | 0.0 | 0.0 | 0.00 | 0.45 | 0.00 | 66 | 1015.4 |
| 20260507235013 | 63 | 40 | 0.0 | 0.0 | 0.00 | 0.45 | 0.00 | 65 | 1015.4 |
| 20260507234511 | 63 | 48 | 0.0 | 0.0 | 0.00 | 0.45 | 0.00 | 63 | 1015.5 |
| 20260507234013 | 63 | 148 | 0.0 | 0.0 | 0.00 | 0.45 | 0.00 | 63 | 1015.5 |
| 20260507233510 | 64 | 249 | 0.0 | 0.0 | 0.00 | 0.47 | 0.00 | 61 | 1015.5 |
| 20260507233113 | 64 | 238 | 0.0 | 0.0 | 0.00 | 0.47 | 0.00 | 62 | 1015.2 |
| 20260507232509 | 64 | 176 | 0.0 | 0.0 | 0.00 | 0.47 | 0.00 | 62 | 1015.2 |
| 20260507232011 | 65 | 147 | 0.0 | 0.0 | 0.00 | 0.47 | 0.00 | 61 | 1015.0 |
| 20260507231507 | 65 | 217 | 0.0 | 0.0 | 0.00 | 0.47 | 0.00 | 62 | 1015.0 |
| 20260507230509 | 65 | 304 | 0.0 | 0.0 | 0.00 | 0.47 | 0.00 | 61 | 1014.8 |
| 20260507230016 | 65 | 80 | 0.0 | 0.0 | 0.00 | 0.47 | 0.00 | 61 | 1014.9 |
| 20260507225508 | 66 | 84 | 0.0 | 0.0 | 0.00 | 0.47 | 0.00 | 60 | 1014.7 |
| 20260507225007 | 66 | 298 | 0.0 | 0.0 | 0.00 | 0.47 | 0.00 | 61 | 1014.7 |
| 20260507224508 | 67 | 240 | 0.0 | 0.0 | 0.00 | 0.47 | 0.00 | 62 | 1014.5 |
| 20260507224005 | 67 | 289 | 0.0 | 0.0 | 0.00 | 0.47 | 0.00 | 61 | 1014.5 |
| 20260507223506 | 68 | 276 | 0.0 | 0.0 | 0.00 | 0.48 | 0.00 | 60 | 1014.4 |
| 20260507223005 | 69 | 79 | 0.0 | 0.0 | 0.00 | 0.48 | 0.00 | 58 | 1014.2 |
| 20260507222505 | 69 | 234 | 0.0 | 0.0 | 0.00 | 0.48 | 0.00 | 60 | 1014.3 |
| 20260507222004 | 69 | 285 | 0.0 | 0.0 | 0.00 | 0.48 | 0.00 | 60 | 1014.0 |
| 20260507221504 | 70 | 252 | 0.0 | 0.0 | 0.00 | 0.48 | 0.00 | 58 | 1013.9 |
| 20260507220502 | 71 | 68 | 0.0 | 0.0 | 0.00 | 0.48 | 0.00 | 57 | 1013.7 |
| 20260507220003 | 72 | 127 | 0.0 | 0.0 | 0.00 | 0.48 | 0.00 | 56 | 1013.5 |
| 20260507215505 | 72 | 229 | 0.0 | 0.0 | 0.00 | 0.48 | 0.00 | 55 | 1013.4 |
| 20260507215003 | 73 | 292 | 0.0 | 0.0 | 0.00 | 0.48 | 0.00 | 57 | 1013.3 |
| 20260507214502 | 74 | 257 | 0.0 | 0.0 | 0.00 | 0.48 | 0.00 | 53 | 1013.2 |
| 20260507214102 | 74 | 222 | 0.0 | 0.0 | 0.00 | 0.48 | 0.00 | 51 | 1013.0 |
| 20260507213502 | 74 | 155 | 0.0 | 0.0 | 0.00 | 0.48 | 0.00 | 50 | 1012.9 |
| 20260507213001 | 74 | 275 | 0.0 | 0.0 | 0.00 | 0.48 | 0.00 | 50 | 1012.9 |
| 20260507212501 | 74 | 143 | 0.0 | 0.0 | 0.00 | 0.48 | 0.00 | 49 | 1012.8 |
| 20260507212001 | 74 | 86 | 0.0 | 0.0 | 0.00 | 0.48 | 0.00 | 49 | 1012.6 |
| 20260507211501 | 74 | 103 | 0.0 | 0.0 | 0.00 | 0.48 | 0.00 | 49 | 1012.8 |
| 20260507210504 | 75 | 178 | 0.0 | 0.0 | 0.00 | 0.48 | 0.00 | 49 | 1012.5 |
| 20260507210003 | 75 | 221 | 0.0 | 0.0 | 0.00 | 0.48 | 0.00 | 53 | 1012.4 |
| 20260507205502 | 75 | 266 | 0.0 | 0.0 | 0.00 | 0.48 | 0.00 | 52 | 1012.4 |
| 20260507205001 | 75 | 200 | 0.0 | 0.0 | 0.00 | 0.48 | 0.00 | 52 | 1012.5 |
| 20260507204502 | 74 | 214 | 0.0 | 0.0 | 0.00 | 0.48 | 0.00 | 52 | 1012.4 |
| 20260507204002 | 75 | 211 | 0.0 | 0.0 | 0.00 | 0.48 | 0.00 | 52 | 1012.5 |
| 20260507203501 | 75 | 200 | 0.0 | 0.0 | 0.00 | 0.48 | 0.00 | 52 | 1012.4 |
| 20260507203002 | 75 | 217 | 0.0 | 0.0 | 0.00 | 0.48 | 0.00 | 53 | 1012.3 |
| 20260507202501 | 75 | 255 | 0.0 | 0.0 | 0.00 | 0.48 | 0.00 | 55 | 1012.2 |
| 20260507202104 | 75 | 239 | 0.0 | 0.0 | 0.00 | 0.48 | 0.00 | 54 | 1012.2 |
| 20260507201621 | 75 | 165 | 0.0 | 0.0 | 0.00 | 0.48 | 0.00 | 55 | 1012.1 |
| 20260507200559 | 76 | 198 | 0.0 | 0.0 | 0.00 | 0.48 | 0.00 | 55 | 1012.0 |